[[{"header":{"parameterUnit":"m.s-1","parameterCategory":2,"la1":30.2991,"la2":30.254,"lo1":-89.0895,"lo2":-89.0444,"dy":0.0017,"dx":0.0017,"nx":28,"ny":28,"refTime":"2025-03-22T03:00:00:Z","depth":"0","parameterNumber":2,"parameterNumberName":"U-component_of_CURRENTS"},"data":[0,0,0,0,0,0,0,0,0,0,0,0,0,0,0,0,0,0,0,0,0,0,0,0,0,0,0,0,0,0,0,0,0,0,0,0,0,0,0,0,0,0,0,0,0,0,0,0,0,0,0,0,0,0,0,0,0,0,0.3298,0.3299,0,0.3388,0.3388,0.3388,0.3393,0.3392,0.3392,0.3392,0.3325,0.3324,0.3322,0,0,0,0,0,0,0,0,0,0,0,0,0,0.3081,0.3084,0.3297,0.3299,0.3301,0.3388,0.3388,0.3388,0.3393,0.3392,0.3392,0.3392,0.3326,0.3324,0.3322,0,0,0,0,0,0,0,0,0,0,0,0,0,0.3165,0.3085,0.3297,0.332,0.3324,0.3388,0.3388,0.3388,0.3393,0.3392,0.3392,0.3392,0.3327,0.3324,0.3322,0.3315,0,0,0.3315,0.3314,0,0,0,0,0,0,0,0,0.316,0.3172,0.3315,0.3319,0.3323,0.3386,0.3288,0.3359,0.3393,0.3357,0.3392,0.3392,0.3337,0.3334,0.3342,0.3312,0.3309,0.3315,0.3313,0.3312,0.3312,0,0,0,0,0,0,0,0.3154,0.3168,0.3324,0.3317,0.3322,0.3311,0.3321,0.3301,0.3338,0.336,0.3363,0.3387,0.3337,0.3344,0.334,0.3308,0.3315,0.3313,0.3311,0.331,0.3315,0.3317,0,0,0,0,0,0,0.3165,0.3163,0.3321,0.3328,0.3249,0.3316,0.3327,0.3359,0.3342,0.3343,0.3388,0.3387,0.3348,0.3342,0.3337,0.3353,0.3312,0.331,0.3309,0.3314,0.3315,0.3317,0,0,0,0,0,0,0.316,0.3178,0.3318,0.3253,0.3271,0.3321,0.3356,0.3361,0.3376,0.3366,0.3362,0.3398,0.3348,0.334,0.3336,0.3349,0.3309,0.3307,0.3312,0.3314,0.3316,0.3367,0,0,0,0,0,0,0.3153,0.3176,0.3196,0.3255,0.3276,0.336,0.3357,0.3364,0.3395,0.3396,0.3374,0.3367,0.3347,0.334,0.3334,0.3345,0.3305,0.331,0.3313,0.3316,0.3364,0.3371,0.3377,0,0,0,0,0,0.3145,0.3187,0.3196,0.3215,0.3304,0.3362,0.337,0.3397,0.3396,0.3406,0.3399,0.3368,0.3354,0.3339,0.3332,0.3342,0.3309,0.3312,0.3315,0.3361,0.337,0.3377,0,0,0,0,0,0,0.31,0.3194,0.3205,0.3271,0.3312,0.3366,0.3392,0.3403,0.3408,0.3405,0.3381,0.3375,0.3382,0.3358,0.3343,0.3356,0.3328,0.333,0.3365,0.3373,0.338,0.3405,0.3303,0,0,0,0,0,0.3102,0.3161,0.3226,0.3277,0.3303,0.3343,0.3369,0.3385,0.3407,0.341,0.3398,0.3389,0.3391,0.3378,0.3375,0.3369,0.3408,0.3376,0.3383,0.3388,0.3407,0.3499,0.3517,0.3328,0.3328,0.3328,0,0,0.3102,0.3161,0.3194,0.3272,0.3308,0.335,0.3356,0.3404,0.3427,0.3399,0.3416,0.3412,0.34,0.3408,0.3407,0.3385,0.3463,0.3393,0.3397,0.3413,0.3505,0.3523,0.354,0.3331,0.333,0.333,0,0,0.3137,0.318,0.3238,0.3271,0.3336,0.3362,0.3377,0.3427,0.3435,0.3453,0.3451,0.3463,0.3445,0.3453,0.3451,0.3492,0.3505,0.3484,0.3523,0.3612,0.3629,0.3644,0.372,0.3741,0.3476,0.3476,0.3476,0,0.3124,0.3207,0.3258,0.3308,0.3337,0.3369,0.3408,0.3431,0.3466,0.3483,0.3463,0.3501,0.3473,0.3515,0.3524,0.3507,0.3562,0.3488,0.3623,0.3639,0.3654,0.3727,0.3751,0.3479,0.3478,0.3478,0.3478,0,0.3204,0.325,0.3286,0.336,0.339,0.3432,0.3469,0.3496,0.3505,0.3528,0.3572,0.3562,0.3591,0.3578,0.3554,0.3641,0.365,0.3631,0.3604,0.3676,0.3749,0.3772,0.3483,0.3482,0.3481,0.348,0,0,0.3223,0.3321,0.3331,0.335,0.3414,0.3445,0.3493,0.3548,0.3587,0.3611,0.3671,0.3672,0.3688,0.3689,0.3677,0.3729,0.386,0.3721,0.3724,0.3799,0.4071,0.4005,0.4023,0.3876,0.3881,0.3884,0.4081,0,0.3261,0.3347,0.3389,0.344,0.3474,0.3506,0.3542,0.3589,0.3625,0.3688,0.3715,0.3757,0.3725,0.374,0.3802,0.385,0.3924,0.3808,0.3988,0.3993,0.3928,0.4049,0.382,0.3971,0.4104,0.4108,0.4111,0,0.3321,0.3366,0.3423,0.3466,0.3484,0.3511,0.3576,0.3616,0.371,0.3739,0.3817,0.3852,0.3943,0.3895,0.4063,0.4,0.405,0.408,0.4089,0.4027,0.397,0.392,0.4008,0.3852,0.4146,0.4144,0.4141,0,0.3304,0.3382,0.3419,0.3436,0.3498,0.3519,0.3552,0.363,0.3679,0.3789,0.3852,0.3965,0.4033,0.4135,0.4201,0.4157,0.4385,0.4331,0.4328,0.4323,0.4163,0.4137,0.412,0.4473,0.4472,0.4472,0.4471,0,0.3324,0.335,0.3409,0.3425,0.3461,0.35,0.3551,0.3608,0.371,0.3781,0.3881,0.3976,0.4102,0.4236,0.4281,0.4392,0.4468,0.4378,0.4387,0.4172,0.4146,0.4026,0.3991,0.4479,0.4477,0.4476,0.4475,0,0.3302,0.3346,0.3384,0.344,0.3452,0.3476,0.3546,0.3593,0.3692,0.3804,0.385,0.4038,0.421,0.433,0.4497,0.4491,0.4458,0.4599,0.4331,0.4304,0.4117,0.4094,0.4056,0.3944,0.4643,0.4643,0.4643,0,0.3304,0.3321,0.338,0.3395,0.3416,0.3454,0.3479,0.357,0.3629,0.383,0.389,0.4106,0.423,0.447,0.4496,0.4604,0.4474,0.4445,0.4304,0.4112,0.4095,0.3965,0.3863,0.412,0.4116,0.4112,0.4109,0,0.3289,0.3308,0.3341,0.3377,0.3399,0.3421,0.3469,0.3509,0.3626,0.3739,0.3891,0.4012,0.4232,0.4252,0.4393,0.441,0.4199,0.4373,0.4248,0.3763,0.3549,0.3441,0.3984,0.4076,0.408,0.4082,0.4084,0.4085,0.3268,0.3289,0.3328,0.3354,0.3369,0.3361,0.3345,0.3415,0.3493,0.3599,0.3788,0.3876,0.3975,0.4138,0.4147,0.3954,0.4018,0.3799,0.3818,0.3726,0.351,0.3984,0.4032,0.4035,0.4037,0.4039,0.4041,0,0.324,0.3268,0.3297,0.3299,0.327,0.3305,0.3314,0.3276,0.3305,0.3431,0.354,0.3568,0.358,0.3622,0.353,0.3398,0.3237,0.3292,0.3026,0.298,0.3456,0.3316,0.3118,0.3118,0.3119,0.3119,0.3119,0.3119,0.3228,0.3248,0.3267,0.3199,0.318,0.3089,0.3066,0.3033,0.3063,0.3047,0.3032,0.311,0.3219,0.3209,0.3023,0.2943,0.2728,0.2603,0.2663,0.2945,0.299,0.3033,0.2888,0.2604,0.2604,0.1983,0.1978,0.1975]},{"header":{"parameterUnit":"m.s-1","parameterCategory":2,"la1":30.2991,"la2":30.254,"lo1":-89.0895,"lo2":-89.0444,"dy":0.0017,"dx":0.0017,"nx":28,"ny":28,"refTime":"2025-03-22T03:00:00:Z","depth":"0","parameterNumber":3,"parameterNumberName":"V-component_of_CURRENTS"},"data":[0,0,0,0,0,0,0,0,0,0,0,0,0,0,0,0,0,0,0,0,0,0,0,0,0,0,0,0,0,0,0,0,0,0,0,0,0,0,0,0,0,0,0,0,0,0,0,0,0,0,0,0,0,0,0,0,0,0,-0.0061,-0.0061,0,-0.0085,-0.0085,-0.0085,-0.0103,-0.0103,-0.0104,-0.0104,-0.0146,-0.0147,-0.0148,0,0,0,0,0,0,0,0,0,0,0,0,0,0.0007,0.0006,-0.0061,-0.0061,-0.0062,-0.0085,-0.0085,-0.0085,-0.0103,-0.0103,-0.0104,-0.0104,-0.0146,-0.0147,-0.0148,0,0,0,0,0,0,0,0,0,0,0,0,0,-0.0021,0.0005,-0.0061,-0.0073,-0.0074,-0.0084,-0.0085,-0.0085,-0.0103,-0.0103,-0.0104,-0.0104,-0.0145,-0.0147,-0.0148,-0.0154,0,0,-0.0153,-0.0153,0,0,0,0,0,0,0,0,-0.0019,-0.0023,-0.0071,-0.0072,-0.0074,-0.0091,-0.0076,-0.0109,-0.0103,-0.0093,-0.0104,-0.0104,-0.0129,-0.0131,-0.0136,-0.0156,-0.0158,-0.0153,-0.0154,-0.0154,-0.0155,0,0,0,0,0,0,0,-0.0017,-0.0022,-0.0071,-0.0071,-0.0073,-0.0064,-0.0068,-0.0082,-0.011,-0.0094,-0.0095,-0.0097,-0.013,-0.0135,-0.0137,-0.0158,-0.0153,-0.0154,-0.0155,-0.0156,-0.0134,-0.0133,0,0,0,0,0,0,-0.0015,-0.0021,-0.007,-0.0072,-0.0046,-0.0065,-0.007,-0.0086,-0.011,-0.0113,-0.0096,-0.0097,-0.0132,-0.0135,-0.0139,-0.0094,-0.0154,-0.0156,-0.0157,-0.0136,-0.0134,-0.0132,0,0,0,0,0,0,-0.0014,-0.002,-0.0069,-0.0045,-0.0051,-0.0066,-0.0083,-0.0086,-0.0087,-0.0111,-0.0116,-0.0094,-0.0132,-0.0137,-0.0135,-0.0098,-0.0157,-0.0158,-0.0137,-0.0135,-0.0133,-0.0038,0,0,0,0,0,0,-0.0012,-0.002,-0.0025,-0.0046,-0.0052,-0.006,-0.0083,-0.0086,-0.0088,-0.0089,-0.0111,-0.0115,-0.0133,-0.0132,-0.0136,-0.0101,-0.0159,-0.0139,-0.0136,-0.0134,-0.0043,-0.0033,-0.0024,0,0,0,0,0,-0.001,-0.0004,-0.0025,-0.0031,-0.0061,-0.0059,-0.0061,-0.0073,-0.0087,-0.0077,-0.0091,-0.0115,-0.0117,-0.0133,-0.0138,-0.0102,-0.0141,-0.0137,-0.0134,-0.0048,-0.0035,-0.0025,0,0,0,0,0,0,0.0036,-0.0007,-0.0029,-0.0035,-0.0044,-0.0062,-0.0052,-0.0068,-0.0072,-0.0076,-0.0103,-0.0107,-0.0089,-0.0111,-0.0128,-0.0087,-0.013,-0.0128,-0.0063,-0.0051,-0.0042,-0.0015,-0.016,0,0,0,0,0,0.0038,0.0025,-0.0007,-0.0006,-0.0015,-0.0037,-0.0038,-0.0049,-0.0058,-0.0061,-0.0075,-0.0085,-0.008,-0.0079,-0.0085,-0.0069,-0.0083,-0.0047,-0.0038,-0.003,-0.0011,0.0008,0.0021,-0.0121,-0.0121,-0.0121,0,0,0.0059,0.0035,0.0028,0.0002,-0.001,0.001,-0.0037,-0.0034,-0.0007,-0.0065,-0.0034,-0.0057,-0.007,-0.0044,-0.0037,-0.0057,0.0001,-0.0025,-0.0018,-0.0004,0.0013,0.0027,0.0039,-0.0119,-0.0119,-0.012,0,0,0.0111,0.0067,0.0079,0.0075,0.0059,0.0046,0.0048,0.0029,0.0028,0.0042,0.0019,0.0021,0.0015,0.0026,0.0028,0.0084,0.0048,0.0077,0.015,0.0168,0.018,0.0191,0.018,0.0189,0.0085,0.0085,0.0086,0,0.0136,0.0143,0.009,0.0113,0.0123,0.0069,0.0105,0.0102,0.0091,0.01,0.0067,0.0084,0.0058,0.0116,0.0131,0.0109,0.0099,0.0108,0.0182,0.0192,0.0201,0.0187,0.0196,0.009,0.009,0.0089,0.0089,0,0.0203,0.0214,0.0227,0.023,0.0235,0.0255,0.0238,0.0241,0.022,0.0216,0.0246,0.0216,0.0231,0.0221,0.0189,0.0251,0.0215,0.0189,0.0155,0.0222,0.0202,0.0209,0.0097,0.0096,0.0094,0.0093,0,0,0.0248,0.0265,0.0274,0.0295,0.0295,0.0306,0.0346,0.0363,0.0401,0.0378,0.044,0.0423,0.0392,0.0394,0.036,0.0365,0.04,0.0306,0.0304,0.0299,0.0422,0.0375,0.0378,0.0386,0.0389,0.039,0.0378,0,0.0317,0.0381,0.0375,0.0449,0.0476,0.045,0.0501,0.051,0.0505,0.055,0.052,0.0562,0.0467,0.0483,0.0473,0.0434,0.0426,0.0405,0.0356,0.0354,0.0308,0.0388,0.0371,0.0358,0.0384,0.0385,0.0386,0,0.0392,0.042,0.0495,0.0549,0.056,0.0599,0.0647,0.0686,0.0722,0.0728,0.0746,0.0726,0.0747,0.0654,0.0616,0.0606,0.052,0.0469,0.0467,0.04,0.0322,0.0298,0.0369,0.0196,0.0397,0.0396,0.0395,0,0.0446,0.0512,0.0569,0.0587,0.0637,0.0668,0.0695,0.0734,0.0796,0.0849,0.0914,0.0902,0.0938,0.0843,0.0714,0.0676,0.066,0.0596,0.0469,0.0463,0.043,0.0418,0.0336,0.0563,0.0564,0.0564,0.0564,0,0.0523,0.0572,0.0595,0.0628,0.0709,0.0721,0.0817,0.0845,0.0935,0.1049,0.1013,0.1113,0.099,0.0957,0.0795,0.0667,0.0721,0.0506,0.0475,0.0459,0.045,0.028,0.0181,0.0563,0.0563,0.0563,0.0563,0,0.0578,0.0596,0.0663,0.0714,0.0736,0.0789,0.0898,0.0984,0.1051,0.1209,0.125,0.1301,0.1269,0.111,0.0979,0.08,0.0559,0.0585,0.0559,0.0525,0.0233,0.014,0.0033,-0.003,0.0461,0.046,0.0459,0,0.0611,0.0649,0.0714,0.0763,0.0787,0.0866,0.0949,0.1032,0.1145,0.1332,0.1439,0.147,0.1518,0.13,0.1005,0.0738,0.0553,0.0513,0.0434,0.024,0.0113,0.0043,-0.0006,0.0417,0.0415,0.0415,0.0414,0,0.0669,0.0686,0.0736,0.0834,0.0915,0.1024,0.1146,0.1259,0.1399,0.1557,0.1751,0.1808,0.1618,0.1374,0.0995,0.0787,0.0392,0.0484,0.0311,0.0105,0.0001,-0.0082,0.0374,0.0406,0.0407,0.0407,0.0408,0.0408,0.0705,0.0752,0.082,0.0916,0.1024,0.1183,0.1297,0.1467,0.168,0.1938,0.1963,0.2071,0.1666,0.1176,0.0888,0.0315,0.0338,0.0124,0.0036,-0.001,-0.0092,0.0331,0.0308,0.0308,0.0309,0.0309,0.0309,0,0.0752,0.0812,0.0906,0.1035,0.1174,0.1219,0.1441,0.1587,0.1855,0.2063,0.2228,0.2043,0.1571,0.1047,0.0291,-0.0074,-0.0197,-0.0276,-0.0378,-0.04,0.0004,-0.0022,-0.0149,-0.0149,-0.0149,-0.0149,-0.0149,-0.0148,0.0786,0.0873,0.0924,0.1139,0.1247,0.1447,0.1583,0.1815,0.199,0.2229,0.2266,0.2259,0.1792,0.0527,-0.0307,-0.0484,-0.0727,-0.0791,-0.0885,-0.0635,-0.0604,-0.0575,-0.0622,-0.0873,-0.0874,-0.1243,-0.1247,-0.125]}],[{"header":{"parameterUnit":"m.s-1","parameterCategory":2,"la1":30.2991,"la2":30.254,"lo1":-89.0895,"lo2":-89.0444,"dy":0.0017,"dx":0.0017,"nx":28,"ny":28,"refTime":"2025-03-22T03:00:00:Z","depth":"2","parameterNumber":2,"parameterNumberName":"U-component_of_CURRENTS"},"data":[0,0,0,0,0,0,0,0,0,0,0,0,0,0,0,0,0,0,0,0,0,0,0,0,0,0,0,0,0,0,0,0,0,0,0,0,0,0,0,0,0,0,0,0,0,0,0,0,0,0,0,0,0,0,0,0,0,0,0.3057,0.3059,0,0.321,0.3211,0.3211,0.3226,0.3226,0.3226,0.3226,0.3175,0.3174,0.3172,0,0,0,0,0,0,0,0,0,0,0,0,0,0.2653,0.266,0.3056,0.306,0.3063,0.321,0.3211,0.3211,0.3226,0.3226,0.3226,0.3226,0.3175,0.3174,0.3172,0,0,0,0,0,0,0,0,0,0,0,0,0,0.2805,0.2662,0.3056,0.31,0.3107,0.321,0.3211,0.3212,0.3227,0.3226,0.3226,0.3226,0.3176,0.3174,0.3172,0.3165,0,0,0.3166,0.3166,0,0,0,0,0,0,0,0,0.2796,0.2818,0.309,0.3097,0.3105,0.3213,0.3051,0.3191,0.3227,0.3164,0.3226,0.3226,0.3179,0.3177,0.3187,0.3162,0.316,0.3166,0.3165,0.3164,0.3164,0,0,0,0,0,0,0,0.2786,0.2811,0.3101,0.3094,0.3104,0.3072,0.3092,0.3077,0.3154,0.317,0.3175,0.3218,0.3179,0.3188,0.3185,0.3159,0.3166,0.3165,0.3163,0.3163,0.3188,0.319,0,0,0,0,0,0,0.2808,0.2802,0.3096,0.3107,0.2965,0.3081,0.3103,0.3165,0.3159,0.3165,0.3218,0.3218,0.3192,0.3187,0.3183,0.321,0.3164,0.3163,0.3161,0.3186,0.3188,0.319,0,0,0,0,0,0,0.2798,0.2833,0.3091,0.2968,0.3001,0.3091,0.3159,0.3169,0.3194,0.3202,0.3199,0.3236,0.3191,0.3186,0.3195,0.3207,0.3162,0.316,0.3184,0.3187,0.3189,0.324,0,0,0,0,0,0,0.2786,0.2829,0.2874,0.2972,0.301,0.3158,0.3161,0.3173,0.3228,0.3229,0.3216,0.3211,0.3191,0.3198,0.3193,0.3203,0.3159,0.3182,0.3185,0.3188,0.3236,0.3244,0.3251,0,0,0,0,0,0.2771,0.2855,0.2875,0.2911,0.3072,0.3161,0.3174,0.3224,0.3229,0.3242,0.3246,0.3212,0.3216,0.3198,0.3192,0.3202,0.318,0.3184,0.3188,0.3233,0.3243,0.3251,0,0,0,0,0,0,0.2695,0.287,0.2892,0.3021,0.3083,0.3169,0.3216,0.3234,0.3249,0.3252,0.3231,0.3227,0.3241,0.3222,0.3203,0.3224,0.3193,0.3196,0.323,0.3238,0.3246,0.3247,0.3157,0,0,0,0,0,0.2705,0.2819,0.2931,0.3027,0.3071,0.3135,0.3178,0.3207,0.3248,0.3256,0.3248,0.3247,0.3252,0.3246,0.3243,0.3248,0.3258,0.3254,0.3261,0.3268,0.3268,0.3322,0.3334,0.3203,0.3203,0.3203,0,0,0.2709,0.2815,0.2882,0.3019,0.3077,0.3136,0.3157,0.3237,0.3271,0.3245,0.3275,0.327,0.3262,0.3277,0.328,0.326,0.3312,0.3273,0.3278,0.3275,0.3328,0.334,0.3352,0.3206,0.3206,0.3205,0,0,0.276,0.286,0.2958,0.3011,0.3118,0.3156,0.3181,0.3261,0.3283,0.3313,0.3313,0.3322,0.3317,0.3322,0.3322,0.3369,0.3355,0.3367,0.3395,0.3448,0.3459,0.3469,0.3502,0.3514,0.3364,0.3365,0.3365,0,0.2754,0.2886,0.2986,0.306,0.3111,0.3165,0.3222,0.326,0.3319,0.3341,0.3328,0.3361,0.334,0.3378,0.3389,0.3382,0.3409,0.3357,0.3457,0.3467,0.3476,0.3508,0.3521,0.3368,0.3367,0.3367,0.3367,0,0.2861,0.2943,0.3001,0.3117,0.3167,0.3234,0.3299,0.3331,0.3355,0.3384,0.3429,0.3424,0.3446,0.3438,0.3418,0.3475,0.3473,0.3465,0.3431,0.3492,0.3522,0.3535,0.3372,0.3371,0.337,0.3369,0,0,0.2918,0.3054,0.307,0.3099,0.3201,0.325,0.3311,0.3383,0.3428,0.3457,0.352,0.3515,0.3525,0.3527,0.3519,0.3541,0.3613,0.3525,0.3527,0.3552,0.373,0.362,0.3622,0.363,0.3633,0.3635,0.3726,0,0.2964,0.308,0.3144,0.3214,0.3269,0.3316,0.3366,0.3423,0.3469,0.3535,0.3559,0.3611,0.3562,0.3585,0.3604,0.362,0.3648,0.3588,0.3671,0.3673,0.3563,0.3634,0.3314,0.3359,0.3738,0.374,0.3741,0,0.3052,0.311,0.3189,0.3253,0.3285,0.3322,0.3404,0.3459,0.3557,0.3597,0.3659,0.3698,0.3753,0.3706,0.3767,0.3738,0.3738,0.3734,0.3738,0.3623,0.3586,0.3359,0.3367,0.3762,0.376,0.3759,0.3757,0,0.3035,0.3141,0.3193,0.3219,0.3304,0.3336,0.3384,0.3472,0.3527,0.3658,0.3716,0.3796,0.385,0.3876,0.3872,0.384,0.3935,0.3898,0.38,0.3792,0.3526,0.349,0.3948,0.3947,0.3947,0.3947,0.3947,0,0.3069,0.3109,0.3185,0.3205,0.3258,0.3326,0.3394,0.346,0.357,0.3649,0.3752,0.3833,0.3897,0.396,0.3937,0.391,0.4001,0.3816,0.3814,0.3534,0.35,0.3848,0.3835,0.395,0.395,0.3949,0.3948,0,0.3046,0.3105,0.3156,0.3228,0.3251,0.3289,0.3384,0.3438,0.3552,0.367,0.3726,0.3883,0.3967,0.4007,0.406,0.3982,0.3976,0.3943,0.36,0.3555,0.378,0.3769,0.3846,0.3843,0.384,0.3838,0.3836,0,0.3049,0.3072,0.3143,0.3167,0.3199,0.3262,0.3306,0.3416,0.3476,0.3687,0.374,0.3893,0.3931,0.3976,0.3886,0.3839,0.3956,0.3539,0.3401,0.3782,0.3773,0.3766,0.3759,0.3077,0.3069,0.3062,0.3057,0,0.3017,0.3045,0.307,0.3118,0.3161,0.3213,0.3284,0.3317,0.3467,0.3562,0.3691,0.3744,0.3779,0.3582,0.3536,0.3469,0.3516,0.3405,0.3919,0.3147,0.3063,0.3052,0.3069,0.3,0.3006,0.301,0.3013,0.3015,0.2977,0.2984,0.3014,0.3056,0.3106,0.314,0.3135,0.3208,0.327,0.3306,0.3462,0.3392,0.3381,0.3107,0.3015,0.2953,0.3169,0.3028,0.3045,0.307,0.296,0.2875,0.2756,0.276,0.2764,0.2767,0.277,0,0.2902,0.2933,0.2952,0.298,0.2982,0.3065,0.3098,0.3045,0.3046,0.3045,0.3036,0.2703,0.2548,0.2585,0.2359,0.2332,0.2285,0.2284,0.2201,0.2258,0.231,0.2159,0.1744,0.1741,0.1738,0.1736,0,0,0.286,0.2839,0.2842,0.2825,0.2874,0.2837,0.2833,0.272,0.2664,0.2487,0.2356,0.2377,0.2476,0.2068,0.2012,0.1856,0.205,0.1786,0.2605,0.2565,0.2613,0.2731,0.2563,0,0,0,0,0]},{"header":{"parameterUnit":"m.s-1","parameterCategory":2,"la1":30.2991,"la2":30.254,"lo1":-89.0895,"lo2":-89.0444,"dy":0.0017,"dx":0.0017,"nx":28,"ny":28,"refTime":"2025-03-22T03:00:00:Z","depth":"2","parameterNumber":3,"parameterNumberName":"V-component_of_CURRENTS"},"data":[0,0,0,0,0,0,0,0,0,0,0,0,0,0,0,0,0,0,0,0,0,0,0,0,0,0,0,0,0,0,0,0,0,0,0,0,0,0,0,0,0,0,0,0,0,0,0,0,0,0,0,0,0,0,0,0,0,0,-0.0323,-0.0324,0,-0.0345,-0.0345,-0.0345,-0.0343,-0.0343,-0.0342,-0.0342,-0.0366,-0.0367,-0.0367,0,0,0,0,0,0,0,0,0,0,0,0,0,-0.0202,-0.0205,-0.0323,-0.0324,-0.0324,-0.0345,-0.0345,-0.0345,-0.0343,-0.0343,-0.0342,-0.0342,-0.0366,-0.0367,-0.0367,0,0,0,0,0,0,0,0,0,0,0,0,0,-0.0241,-0.0206,-0.0323,-0.0327,-0.0328,-0.0345,-0.0345,-0.0345,-0.0343,-0.0343,-0.0342,-0.0342,-0.0365,-0.0366,-0.0368,-0.0379,0,0,-0.0371,-0.0372,0,0,0,0,0,0,0,0,-0.0238,-0.0245,-0.0326,-0.0327,-0.0328,-0.0343,-0.0311,-0.0357,-0.0343,-0.0335,-0.0342,-0.0342,-0.036,-0.0362,-0.0363,-0.038,-0.0381,-0.0371,-0.0372,-0.0372,-0.0373,0,0,0,0,0,0,0,-0.0236,-0.0243,-0.033,-0.0327,-0.0328,-0.0302,-0.0307,-0.032,-0.0346,-0.0335,-0.0336,-0.0342,-0.036,-0.0362,-0.0363,-0.0381,-0.0371,-0.0372,-0.0373,-0.0373,-0.0346,-0.0344,0,0,0,0,0,0,-0.0243,-0.0242,-0.0329,-0.0331,-0.0284,-0.0305,-0.0311,-0.0337,-0.0346,-0.0348,-0.0342,-0.0342,-0.036,-0.0362,-0.0364,-0.0312,-0.0372,-0.0373,-0.0374,-0.0347,-0.0345,-0.0344,0,0,0,0,0,0,-0.0241,-0.0251,-0.0328,-0.0287,-0.0295,-0.0308,-0.0336,-0.0337,-0.033,-0.0352,-0.0353,-0.0333,-0.036,-0.0363,-0.0352,-0.0316,-0.0374,-0.0375,-0.0349,-0.0347,-0.0345,-0.025,0,0,0,0,0,0,-0.0237,-0.0251,-0.0265,-0.0288,-0.0298,-0.0323,-0.0337,-0.0338,-0.0336,-0.0335,-0.0345,-0.0348,-0.036,-0.035,-0.0353,-0.0318,-0.0376,-0.0351,-0.0348,-0.0345,-0.0255,-0.0245,-0.0237,0,0,0,0,0,-0.0233,-0.0249,-0.0267,-0.0277,-0.0321,-0.0323,-0.0324,-0.033,-0.0336,-0.0324,-0.0326,-0.0347,-0.0335,-0.035,-0.0354,-0.0318,-0.0352,-0.0349,-0.0345,-0.026,-0.0247,-0.0237,0,0,0,0,0,0,-0.0193,-0.0252,-0.0271,-0.0302,-0.0307,-0.0323,-0.0315,-0.0324,-0.0318,-0.0313,-0.0334,-0.0336,-0.0311,-0.0332,-0.0347,-0.0303,-0.0345,-0.0343,-0.0279,-0.0268,-0.0258,-0.0247,-0.0377,0,0,0,0,0,-0.0197,-0.0231,-0.0263,-0.0284,-0.0286,-0.03,-0.0301,-0.0305,-0.0307,-0.0304,-0.0312,-0.0313,-0.0303,-0.0299,-0.0301,-0.0282,-0.0311,-0.0261,-0.0251,-0.0243,-0.0236,-0.0233,-0.0223,-0.0333,-0.0333,-0.0333,0,0,-0.0192,-0.0223,-0.0245,-0.0278,-0.0282,-0.0265,-0.0298,-0.0291,-0.0262,-0.0308,-0.027,-0.0285,-0.0292,-0.0262,-0.0253,-0.0272,-0.0232,-0.0239,-0.0232,-0.0229,-0.0229,-0.0218,-0.0209,-0.0331,-0.0332,-0.0332,0,0,-0.0164,-0.0217,-0.0219,-0.0221,-0.0228,-0.0237,-0.0232,-0.024,-0.0227,-0.0207,-0.0219,-0.021,-0.0211,-0.0196,-0.0191,-0.0135,-0.0185,-0.0139,-0.0079,-0.0076,-0.0067,-0.0059,-0.0102,-0.0099,-0.0131,-0.0131,-0.0131,0,-0.0146,-0.0162,-0.0212,-0.0191,-0.018,-0.0218,-0.0181,-0.0175,-0.0174,-0.0154,-0.018,-0.0157,-0.0172,-0.0115,-0.0097,-0.0111,-0.014,-0.0118,-0.0063,-0.0056,-0.005,-0.0096,-0.0093,-0.0126,-0.0127,-0.0127,-0.0128,0,-0.011,-0.0111,-0.0103,-0.0102,-0.009,-0.0072,-0.007,-0.0053,-0.0057,-0.0056,-0.0015,-0.0035,-0.0019,-0.0022,-0.0045,0.0005,-0.0042,-0.0054,-0.009,-0.0033,-0.0086,-0.0085,-0.0119,-0.0121,-0.0122,-0.0124,0,0,-0.0093,-0.0083,-0.0076,-0.0048,-0.0042,-0.0025,0.0026,0.006,0.0104,0.009,0.0158,0.0149,0.0122,0.0125,0.0101,0.0096,0.0102,0.004,0.0038,-0.0002,0.0072,0.0037,0.0033,0.0099,0.01,0.0101,0.001,0,-0.004,0.0015,0.0007,0.0076,0.0109,0.0103,0.0158,0.0185,0.0197,0.0248,0.0233,0.0279,0.0187,0.0211,0.0186,0.0139,0.0111,0.0125,0.0021,0.0017,-0.0019,0.0036,0.0046,-0.0033,0.001,0.001,0.001,0,0.0012,0.0038,0.0113,0.0173,0.019,0.0228,0.0303,0.0349,0.04,0.0418,0.0436,0.0422,0.0429,0.035,0.0261,0.0272,0.0174,0.0113,0.0108,0.0046,-0.0015,-0.008,-0.0034,0.001,0.001,0.001,0.001,0,0.0059,0.0122,0.0183,0.02,0.0255,0.0304,0.0344,0.04,0.0464,0.0542,0.0601,0.0571,0.0599,0.0479,0.0331,0.0305,0.022,0.0174,0.0038,0.0031,0.0005,-0.0004,0.0106,0.0106,0.0106,0.0106,0.0106,0,0.0111,0.0165,0.021,0.0238,0.0326,0.0362,0.0466,0.0506,0.0599,0.0709,0.0694,0.0776,0.0636,0.057,0.0392,0.0218,0.0261,0.0056,0.0023,0.0035,0.003,0.0043,0.0037,0.0103,0.0103,0.0104,0.0105,0,0.0148,0.0179,0.0248,0.0314,0.0347,0.0413,0.0535,0.062,0.0703,0.0858,0.0906,0.0936,0.0864,0.0681,0.0506,0.0323,0.0152,0.0072,0.0073,0.0042,-0.0068,-0.0068,-0.0088,-0.009,-0.0091,-0.0092,-0.0093,0,0.017,0.0205,0.0286,0.0343,0.0375,0.0478,0.0567,0.0662,0.077,0.0961,0.1054,0.1058,0.1062,0.0773,0.0479,0.0171,0.0145,-0.002,-0.0062,-0.0049,-0.008,-0.0078,-0.0076,-0.008,-0.0081,-0.0082,-0.0082,0,0.0192,0.0217,0.0258,0.0368,0.0465,0.059,0.0728,0.0821,0.0982,0.1143,0.1319,0.1343,0.1096,0.0815,0.0408,0.0199,0.0029,-0.0044,0.0007,-0.0026,-0.0046,-0.0075,-0.0073,-0.0088,-0.0087,-0.0087,-0.0086,-0.0086,0.02,0.0222,0.0279,0.039,0.0525,0.0701,0.0823,0.1002,0.1206,0.1445,0.1443,0.1483,0.1165,0.0636,0.031,-0.0023,-0.002,-0.0156,-0.0152,-0.0147,-0.0123,-0.0143,-0.0202,-0.0202,-0.0202,-0.0202,-0.0202,0,0.0194,0.0233,0.0313,0.0455,0.0618,0.0716,0.0941,0.1096,0.1372,0.1518,0.1645,0.1339,0.1015,0.0663,0.0153,-0.0159,-0.0178,-0.0244,-0.0199,-0.0192,-0.0186,-0.0162,-0.0253,-0.0253,-0.0254,-0.0255,0,0,0.0188,0.0229,0.0259,0.0493,0.0658,0.0913,0.1068,0.1319,0.1459,0.1619,0.1628,0.1526,0.1094,0.0717,0.031,0.0037,-0.0005,-0.002,0.0048,0.0155,0.0165,-0.0114,-0.0066,0,0,0,0,0]}],[{"header":{"parameterUnit":"m.s-1","parameterCategory":2,"la1":30.2991,"la2":30.254,"lo1":-89.0895,"lo2":-89.0444,"dy":0.0017,"dx":0.0017,"nx":28,"ny":28,"refTime":"2025-03-22T03:00:00:Z","depth":"4","parameterNumber":2,"parameterNumberName":"U-component_of_CURRENTS"},"data":[0,0,0,0,0,0,0,0,0,0,0,0,0,0,0,0,0,0,0,0,0,0,0,0,0,0,0,0,0,0,0,0,0,0,0,0,0,0,0,0,0,0,0,0,0,0,0,0,0,0,0,0,0,0,0,0,0,0,0.0725,0.0725,0,0.0645,0.0643,0.0641,0.0616,0.0618,0.0619,0.0621,0.0779,0.0782,0.0784,0,0,0,0,0,0,0,0,0,0,0,0,0,0.0859,0.0855,0.0725,0.0725,0.0725,0.0645,0.0643,0.0641,0.0616,0.0618,0.062,0.0621,0.0778,0.0781,0.0785,0,0,0,0,0,0,0,0,0,0,0,0,0,0.078,0.0854,0.0725,0.0712,0.0711,0.0646,0.0643,0.064,0.0616,0.0618,0.062,0.0622,0.0777,0.0781,0.0785,0.0767,0,0,0.0798,0.08,0,0,0,0,0,0,0,0,0.0785,0.0774,0.0714,0.0713,0.0711,0.0653,0.0749,0.0699,0.0615,0.0639,0.0621,0.0623,0.0765,0.077,0.073,0.0775,0.0781,0.0799,0.0801,0.0803,0.0804,0,0,0,0,0,0,0,0.079,0.0778,0.0681,0.0714,0.0713,0.0712,0.0702,0.0737,0.0686,0.0637,0.0638,0.0648,0.0765,0.0726,0.0735,0.0784,0.0798,0.0802,0.0805,0.0807,0.1066,0.107,0,0,0,0,0,0,0.082,0.0782,0.0684,0.068,0.0768,0.0709,0.0697,0.066,0.068,0.0687,0.0646,0.0647,0.0717,0.073,0.0741,0.0938,0.0803,0.0807,0.0809,0.1062,0.1067,0.1072,0,0,0,0,0,0,0.0823,0.081,0.0687,0.0742,0.0728,0.0705,0.0663,0.0658,0.0638,0.0686,0.0696,0.0637,0.072,0.0735,0.0806,0.0937,0.0809,0.0813,0.1057,0.1063,0.1069,0.1197,0,0,0,0,0,0,0.0826,0.081,0.0797,0.0742,0.0726,0.0656,0.0662,0.0655,0.0645,0.0646,0.0682,0.0697,0.0722,0.08,0.081,0.0941,0.0816,0.1051,0.106,0.1067,0.1187,0.1207,0.1224,0,0,0,0,0,0.083,0.0778,0.0795,0.0785,0.0705,0.0657,0.0646,0.0631,0.0643,0.0622,0.0674,0.0697,0.0862,0.0804,0.0816,0.0952,0.1047,0.1057,0.1067,0.1179,0.1203,0.1224,0,0,0,0,0,0,0.0826,0.0771,0.0788,0.0724,0.0712,0.0657,0.0624,0.0635,0.0644,0.067,0.0709,0.0726,0.0838,0.0867,0.0802,0.1054,0.0977,0.0989,0.1058,0.1081,0.1099,0.1085,0.082,0,0,0,0,0,0.0825,0.0766,0.0748,0.07,0.0685,0.0664,0.0646,0.0658,0.0662,0.0664,0.072,0.0801,0.088,0.0953,0.0995,0.1119,0.1114,0.1229,0.1247,0.1263,0.1262,0.1351,0.1377,0.1104,0.1104,0.1104,0,0,0.0774,0.0777,0.0718,0.0698,0.0667,0.0668,0.0652,0.0632,0.0688,0.069,0.078,0.0833,0.091,0.1046,0.111,0.1102,0.134,0.1275,0.1288,0.1279,0.1364,0.139,0.1414,0.111,0.1109,0.1108,0,0,0.0715,0.0678,0.0634,0.0644,0.0665,0.0661,0.0668,0.0667,0.0712,0.0815,0.0844,0.0949,0.1092,0.1165,0.1225,0.1365,0.1396,0.1443,0.1574,0.1662,0.1685,0.1704,0.1729,0.175,0.1501,0.1501,0.1501,0,0.0699,0.0664,0.0617,0.0642,0.0672,0.0667,0.0691,0.0715,0.0773,0.0838,0.0879,0.1072,0.1146,0.1291,0.1399,0.1407,0.1455,0.1482,0.1684,0.1703,0.1721,0.1742,0.1763,0.1508,0.1507,0.1507,0.1506,0,0.0635,0.0645,0.0618,0.0656,0.0672,0.0678,0.0743,0.0806,0.0902,0.096,0.1122,0.1211,0.1342,0.1426,0.149,0.1683,0.1671,0.1654,0.1618,0.1756,0.1769,0.1789,0.1519,0.1516,0.1514,0.1512,0,0,0.0527,0.0568,0.0577,0.0624,0.0707,0.0699,0.0822,0.0913,0.0988,0.1125,0.1256,0.1447,0.1498,0.1569,0.1648,0.1786,0.1987,0.1844,0.1845,0.185,0.2181,0.1959,0.1958,0.2045,0.205,0.2053,0.2136,0,0.0524,0.0579,0.0621,0.0678,0.0695,0.0789,0.0876,0.0982,0.1112,0.1234,0.1368,0.1509,0.1551,0.168,0.1807,0.1964,0.205,0.1964,0.2062,0.2063,0.1835,0.1977,0.2067,0.2151,0.2155,0.2158,0.216,0,0.0483,0.0541,0.0608,0.0714,0.0726,0.0789,0.0947,0.1053,0.1222,0.1336,0.149,0.1578,0.182,0.1823,0.2086,0.2061,0.2133,0.2208,0.2212,0.1967,0.1878,0.1989,0.2195,0.2192,0.219,0.2187,0.2185,0,0.0441,0.0537,0.0603,0.064,0.0747,0.0842,0.094,0.1099,0.1208,0.1443,0.1543,0.1738,0.19,0.2052,0.2224,0.2231,0.2448,0.2441,0.224,0.2223,0.2335,0.2313,0.2537,0.2537,0.2537,0.2536,0.2536,0,0.0442,0.0486,0.059,0.0626,0.0706,0.083,0.0969,0.1092,0.1289,0.1389,0.1602,0.1694,0.1994,0.2133,0.2255,0.2307,0.2454,0.2269,0.2247,0.2386,0.237,0.2347,0.2324,0.2539,0.2539,0.2538,0.2538,0,0.0384,0.0456,0.0504,0.0632,0.0688,0.0763,0.0985,0.1061,0.1278,0.1441,0.1544,0.1766,0.1967,0.2118,0.2365,0.2315,0.2405,0.2333,0.2443,0.2422,0.2113,0.2097,0.2187,0.218,0.2174,0.2169,0.2165,0,0.0361,0.0383,0.0484,0.052,0.0597,0.0744,0.0825,0.1051,0.1153,0.143,0.1475,0.172,0.184,0.1999,0.2161,0.2285,0.2234,0.2244,0.2218,0.2117,0.2087,0.2079,0.2071,0.2156,0.2155,0.2153,0.2152,0,0.0304,0.033,0.0373,0.0449,0.053,0.0618,0.0787,0.0848,0.1099,0.1264,0.1438,0.1574,0.1711,0.1897,0.1965,0.204,0.2271,0.2185,0.2198,0.2174,0.2081,0.2055,0.2054,0.2132,0.2135,0.2136,0.2138,0,0.0248,0.0245,0.0301,0.0366,0.0443,0.0506,0.0604,0.0757,0.09,0.1212,0.1242,0.1479,0.168,0.1756,0.1831,0.1894,0.1889,0.1865,0.1894,0.1918,0.1789,0.1629,0.154,0,0,0,0,0,0.0196,0.0201,0.023,0.0288,0.0352,0.0417,0.0567,0.067,0.0884,0.097,0.1137,0.1268,0.1434,0.1541,0.156,0.1663,0.1855,0.167,0.183,0.2022,0.2045,0.1917,0,0,0,0,0,0,0.0163,0.0185,0.0196,0.0219,0.0252,0.0327,0.0418,0.0552,0.0645,0.0872,0.0983,0.1159,0.134,0.142,0.1528,0.1556,0.1625,0.181,0.1806,0.2009,0.203,0.2048,0.1924,0,0,0,0,0]},{"header":{"parameterUnit":"m.s-1","parameterCategory":2,"la1":30.2991,"la2":30.254,"lo1":-89.0895,"lo2":-89.0444,"dy":0.0017,"dx":0.0017,"nx":28,"ny":28,"refTime":"2025-03-22T03:00:00:Z","depth":"4","parameterNumber":3,"parameterNumberName":"V-component_of_CURRENTS"},"data":[0,0,0,0,0,0,0,0,0,0,0,0,0,0,0,0,0,0,0,0,0,0,0,0,0,0,0,0,0,0,0,0,0,0,0,0,0,0,0,0,0,0,0,0,0,0,0,0,0,0,0,0,0,0,0,0,0,0,0.0303,0.0304,0,0.0393,0.0394,0.0395,0.0436,0.0436,0.0436,0.0437,0.0432,0.0432,0.0432,0,0,0,0,0,0,0,0,0,0,0,0,0,0.014,0.0143,0.0303,0.0304,0.0305,0.0393,0.0394,0.0395,0.0436,0.0436,0.0437,0.0437,0.0432,0.0432,0.0432,0,0,0,0,0,0,0,0,0,0,0,0,0,0.0218,0.0144,0.0303,0.0337,0.0341,0.0393,0.0394,0.0395,0.0436,0.0436,0.0437,0.0437,0.0432,0.0432,0.0432,0.0431,0,0,0.0432,0.0431,0,0,0,0,0,0,0,0,0.0214,0.0224,0.0331,0.0335,0.0339,0.0404,0.0335,0.0403,0.0436,0.0399,0.0437,0.0437,0.0415,0.0416,0.0433,0.0431,0.043,0.0432,0.0431,0.0431,0.0431,0,0,0,0,0,0,0,0.0208,0.022,0.0338,0.0332,0.0337,0.0339,0.035,0.0348,0.0403,0.0403,0.0406,0.0417,0.0416,0.0433,0.0433,0.043,0.0432,0.0431,0.0431,0.0431,0.0299,0.0295,0,0,0,0,0,0,0.0201,0.0215,0.0335,0.034,0.0276,0.0342,0.0355,0.0383,0.0406,0.041,0.0417,0.0419,0.0434,0.0433,0.0433,0.0388,0.0431,0.0431,0.0431,0.0302,0.0298,0.0294,0,0,0,0,0,0,0.0197,0.0211,0.0331,0.0279,0.0295,0.0345,0.0376,0.0385,0.0417,0.0418,0.0421,0.0442,0.0434,0.0433,0.0435,0.0389,0.0431,0.0431,0.0306,0.0301,0.0296,0.0326,0,0,0,0,0,0,0.0192,0.021,0.0234,0.0279,0.0298,0.0379,0.0377,0.0386,0.0423,0.0427,0.044,0.0439,0.0434,0.0435,0.0435,0.039,0.0431,0.031,0.0304,0.0298,0.0329,0.0322,0.0317,0,0,0,0,0,0.0187,0.0244,0.0236,0.025,0.0328,0.038,0.0391,0.0424,0.0424,0.045,0.0443,0.044,0.039,0.0435,0.0434,0.0388,0.0313,0.0306,0.0298,0.0332,0.0324,0.0317,0,0,0,0,0,0,0.0195,0.0255,0.0247,0.0319,0.0344,0.0388,0.0429,0.0432,0.0452,0.0454,0.0442,0.0441,0.0419,0.039,0.0438,0.0317,0.0332,0.0324,0.0357,0.035,0.0343,0.0342,0.0431,0,0,0,0,0,0.0202,0.026,0.029,0.0346,0.0363,0.0388,0.0415,0.043,0.045,0.0461,0.0458,0.0422,0.0382,0.0362,0.0344,0.0303,0.0289,0.025,0.0244,0.0239,0.0228,0.0196,0.0188,0.0269,0.0269,0.0269,0,0,0.0221,0.026,0.0293,0.035,0.0377,0.0393,0.0407,0.0459,0.0457,0.0454,0.0459,0.0432,0.0372,0.0328,0.0306,0.0301,0.0203,0.0229,0.0227,0.0218,0.0188,0.0181,0.0174,0.0264,0.0265,0.0265,0,0,0.0279,0.032,0.0372,0.0388,0.0427,0.0431,0.0443,0.0477,0.0484,0.0482,0.0451,0.04,0.0366,0.0299,0.0258,0.0197,0.0192,0.0163,0.012,0.0089,0.0084,0.0079,0.0053,0.0046,0.0137,0.0137,0.0137,0,0.0287,0.0355,0.0393,0.0424,0.0439,0.0441,0.0465,0.0465,0.0486,0.0473,0.0483,0.0374,0.0341,0.0234,0.0196,0.0187,0.0175,0.0172,0.0089,0.0083,0.0078,0.0052,0.0044,0.0138,0.0138,0.0138,0.0138,0,0.0371,0.0402,0.0439,0.0462,0.0479,0.0515,0.0501,0.0505,0.0496,0.0471,0.0408,0.0354,0.0275,0.0228,0.0198,0.01,0.0108,0.0116,0.013,0.0074,0.0047,0.0039,0.0139,0.0138,0.0138,0.0138,0,0,0.0438,0.0485,0.0493,0.0492,0.0504,0.0526,0.0512,0.0494,0.0475,0.0437,0.0387,0.028,0.0238,0.0182,0.0118,0.0059,0.0011,0.0061,0.0059,0.0073,-0.0049,-0.0048,-0.0057,0.0023,0.0022,0.002,-0.0049,0,0.048,0.0534,0.0549,0.0565,0.058,0.0562,0.0545,0.0516,0.0487,0.0435,0.0328,0.027,0.0219,0.0179,0.0105,0.0047,-0.0013,0.0029,-0.0032,-0.0035,0.0007,-0.0068,0.0015,-0.0056,-0.0058,-0.0059,-0.006,0,0.054,0.0572,0.061,0.0599,0.0608,0.0617,0.0593,0.0583,0.0493,0.0462,0.0359,0.0286,0.0152,0.0142,0.0001,0.0037,-0.0016,-0.006,-0.0062,-0.0078,-0.005,0.0004,-0.0077,-0.0075,-0.0074,-0.0073,-0.0072,0,0.0563,0.0597,0.063,0.0633,0.0631,0.0651,0.0655,0.0603,0.0594,0.0489,0.0452,0.0291,0.0227,0.0126,0.0006,0.0015,-0.0123,-0.0111,-0.0168,-0.0167,-0.0151,-0.0145,-0.0204,-0.0204,-0.0204,-0.0204,-0.0204,0,0.0587,0.0608,0.0654,0.0674,0.0713,0.0703,0.0732,0.0699,0.0647,0.0607,0.0479,0.0399,0.0228,0.0113,0.0011,-0.0113,-0.0116,-0.0194,-0.0195,-0.0142,-0.0134,-0.0157,-0.015,-0.0206,-0.0206,-0.0205,-0.0205,0,0.059,0.0619,0.0652,0.0695,0.0728,0.0761,0.0816,0.0811,0.077,0.0713,0.0679,0.0492,0.0346,0.0176,0.0008,-0.0086,-0.0207,-0.0245,-0.0185,-0.0177,-0.0232,-0.0224,-0.0318,-0.0319,-0.032,-0.032,-0.0321,0,0.059,0.0616,0.0691,0.0733,0.0772,0.0842,0.0881,0.0877,0.0868,0.0762,0.0713,0.0557,0.0417,0.0176,0.0006,-0.0194,-0.022,-0.0283,-0.0276,-0.0258,-0.0249,-0.024,-0.0231,-0.0322,-0.0322,-0.0322,-0.0322,0,0.0586,0.0621,0.0659,0.0762,0.0831,0.0894,0.0955,0.0949,0.0911,0.0877,0.0733,0.0565,0.0386,0.0173,0.0017,-0.0128,-0.0247,-0.029,-0.029,-0.0284,-0.0263,-0.0251,-0.0242,-0.0324,-0.0324,-0.0324,-0.0324,0,0.0585,0.0612,0.0683,0.0763,0.0857,0.0913,0.0944,0.0937,0.0932,0.0815,0.0771,0.0564,0.0446,0.0208,0.0059,-0.0084,-0.0119,-0.0164,-0.0171,-0.017,-0.0112,-0.0063,-0.0083,0,0,0,0,0,0.0572,0.0611,0.0682,0.0756,0.0847,0.0916,0.0967,0.0976,0.0948,0.0858,0.0819,0.0649,0.0386,0.0259,0.0119,0.0047,-0.0144,-0.0124,-0.0198,-0.0336,-0.0334,-0.0292,0,0,0,0,0,0,0.0567,0.0632,0.0667,0.0749,0.081,0.0905,0.0948,0.0923,0.0878,0.0826,0.0694,0.0621,0.0377,0.0478,0.0119,0.0071,0.0005,-0.0242,-0.0245,-0.0338,-0.0335,-0.0333,-0.029,0,0,0,0,0]}]]